Wind_Speed
4 4 5 5 6 7 6 4 4 4 5 4 6 6 7 7 8 9 8 8 7 7 7 6 6 7 7 7 7 7 6 6 6 6 6 5 5 5 5 4 4 4 4 4
5 5 5 7 8 7 5 5 6 6 6 5 7 8 7 6 7 8 8 8 7 7 7 7 6 6 6 7 7 7 7 6 6 6 6 6 5 5 4 5 5 5 5 5
8 7 8 8 8 6 6 7 7 8 8 7 8 9 9 7 6 9 9 8 7 8 7 7 7 6 6 6 7 7 7 7 6 7 7 7 6 6 6 5 5 5 6 6
9 9 9 8 9 7 8 9 8 9 7 8 9 11 10 10 9 9 9 8 7 7 8 8 8 8 7 7 8 8 8 8 8 8 8 8 7 7 7 7 6 7 7 8
10 10 9 9 10 10 10 9 9 9 8 8 9 11 12 12 12 9 10 10 9 9 9 9 9 8 8 8 9 9 9 9 9 9 10 9 8 8 8 8 8 9 9 9
11 11 11 12 10 9 9 8 8 6 7 9 10 11 12 13 13 11 11 11 11 11 11 10 10 9 9 10 11 11 10 10 10 11 11 11 11 10 10 10 10 10 10 11
11 12 12 12 10 10 10 9 9 9 8 11 10 11 14 15 14 11 11 12 13 12 13 12 11 11 11 13 13 12 12 11 11 12 13 13 13 12 12 12 12 12 12 12
14 15 14 14 12 11 11 10 10 10 11 11 11 12 14 17 16 15 14 13 15 14 14 13 14 13 14 14 13 13 12 12 13 13 14 14 14 14 13 13 14 14 14 14
14 15 15 15 14 13 12 12 12 12 13 13 14 13 14 18 18 16 16 16 16 16 15 15 15 15 14 14 13 13 14 14 14 14 15 15 15 15 15 16 16 16 16 16
17 17 15 14 15 15 15 14 14 12 14 14 14 15 17 19 20 18 17 18 17 16 16 16 16 16 16 15 14 15 15 16 16 16 16 16 16 17 17 18 18 18 18 18
19 19 17 16 16 15 15 14 14 15 15 15 16 17 19 20 19 19 18 18 19 19 17 16 17 17 17 18 17 17 17 17 17 17 17 18 18 19 20 20 19 20 20 20
21 20 21 20 17 17 19 18 17 17 17 17 17 20 20 21 19 20 19 18 20 20 20 19 19 18 17 18 19 19 18 19 19 18 19 19 19 21 21 21 21 21 21 21
23 23 23 20 19 19 20 18 17 17 18 19 19 22 22 22 22 22 21 22 22 21 22 21 21 21 21 21 21 22 21 20 21 20 20 21 21 22 22 22 22 23 23 24
26 26 24 23 21 19 20 19 19 19 20 20 21 23 23 24 25 24 24 25 24 24 23 23 24 23 23 22 22 23 23 22 22 22 23 23 23 23 23 24 25 25 25 25
28 28 27 26 23 22 21 21 22 23 23 22 23 24 25 27 26 26 26 26 26 26 25 26 26 25 25 25 25 25 25 24 25 25 25 24 24 24 25 25 26 26 27 28
28 29 28 28 26 25 25 24 24 24 24 24 24 25 26 28 27 28 29 29 29 28 27 27 27 26 26 26 26 26 26 27 27 27 27 27 27 27 27 28 28 28 29 30
28 29 29 28 26 26 26 25 25 25 26 25 25 26 28 29 30 30 30 30 30 29 28 28 28 27 27 27 27 27 28 28 29 30 29 29 29 29 30 31 31 32 32 32
28 28 28 28 27 27 26 25 26 26 26 26 27 28 29 30 32 32 31 30 30 30 29 28 28 28 28 29 29 29 30 30 31 32 33 32 32 32 33 33 34 34 34 35
28 29 29 28 28 28 26 27 27 27 28 28 29 29 30 30 31 32 32 31 31 31 30 29 29 30 30 31 31 31 32 33 33 34 35 35 34 34 35 35 35 35 36 36
30 31 31 30 30 29 29 29 27 29 31 30 30 30 31 30 30 30 31 32 33 32 31 31 31 31 32 33 33 33 33 34 34 35 36 37 37 37 37 37 37 37 37 38
32 32 32 32 31 30 31 31 29 30 32 31 30 30 31 31 31 32 33 33 33 33 32 32 32 32 33 34 34 35 36 36 36 37 37 38 38 38 38 38 39 39 38 38
32 32 32 32 31 31 32 31 31 31 32 32 32 32 32 32 32 33 33 33 33 32 32 32 33 33 34 34 35 36 37 37 38 38 38 38 39 39 39 40 40 40 40 39
34 33 32 33 33 33 32 33 33 33 33 33 33 33 33 33 34 33 33 33 33 32 32 33 34 34 34 35 36 37 37 37 38 39 39 39 40 40 41 42 42 40 40 39
34 33 33 33 33 34 35 34 33 33 34 34 34 33 32 32 33 33 34 34 34 34 35 35 35 35 35 36 37 37 38 38 39 39 40 40 41 41 41 41 41 41 41 41
33 33 34 35 34 34 34 34 33 34 34 34 34 34 33 33 33 33 33 34 35 35 35 35 35 36 36 37 37 38 39 39 40 40 40 40 41 41 40 41 41 41 42 42
32 32 32 34 35 34 33 33 33 34 35 35 34 34 34 34 34 35 35 36 36 36 36 36 36 36 37 37 38 39 39 40 40 40 40 41 41 41 40 40 40 40 40 40
Wind_Direction
175 196 217 229 221 233 238 254 279 296 312 322 310 309 327 340 331 331 336 342 351 354 354 357 355 358 4 6 5 8 9 13 16 11 8 2 358 2 3 359 357 358 353 338
196 222 240 234 238 236 234 264 278 285 287 304 302 295 297 320 320 319 321 328 333 339 347 347 348 346 350 351 355 358 1 0 5 3 1 356 351 347 342 333 334 332 331 331
213 221 238 245 241 242 244 256 271 280 291 304 298 294 294 302 313 317 317 320 324 328 333 337 343 344 338 339 343 343 342 343 345 345 344 344 341 335 329 324 320 319 317 313
232 231 235 246 252 242 243 247 258 266 275 286 286 290 295 290 296 305 312 318 309 317 322 323 326 329 328 331 331 330 329 327 327 328 329 329 327 324 320 317 314 313 317 312
226 237 242 244 248 246 242 242 246 258 269 273 280 285 289 290 290 293 308 313 312 312 311 314 314 314 319 321 322 323 321 320 320 320 321 320 321 317 315 315 313 309 308 307
225 237 243 246 244 248 257 258 260 265 271 271 276 278 284 283 291 302 307 304 307 307 308 304 304 301 308 313 314 312 311 310 310 311 312 315 317 314 315 313 310 308 306 304
233 245 250 250 249 254 257 265 280 282 276 276 268 268 270 280 282 286 288 292 295 296 298 298 300 301 304 307 308 307 305 306 307 308 307 306 307 306 308 309 306 306 304 303
238 246 245 251 251 249 251 247 261 272 272 282 278 273 274 279 281 284 284 286 285 284 287 291 296 300 302 303 304 303 304 306 306 307 308 304 306 305 304 306 306 306 303 302
234 245 242 251 257 247 249 251 253 266 271 275 272 274 281 283 285 286 284 281 282 283 286 290 291 294 296 299 301 301 303 302 302 302 305 302 303 305 302 304 304 303 302 299
229 239 239 245 255 253 250 249 251 249 260 267 277 277 274 278 289 290 288 284 280 281 282 286 290 294 294 291 295 299 298 298 299 300 300 299 300 301 301 301 301 300 299 298
236 242 242 242 247 252 252 255 255 254 252 262 273 279 284 283 284 287 288 284 283 281 283 284 285 286 290 293 295 297 298 298 300 299 298 297 299 299 301 301 300 298 299 299
237 239 241 242 244 248 248 251 253 257 261 260 267 275 278 279 282 285 282 279 281 285 284 283 282 282 284 288 290 292 293 295 296 297 296 296 295 296 297 297 297 297 298 299
233 236 240 241 240 242 245 249 251 254 260 263 262 268 271 274 278 278 282 281 281 285 285 282 282 281 282 285 288 289 291 293 292 292 292 293 293 293 294 295 296 296 294 296
234 235 237 238 241 245 249 251 250 251 255 261 261 265 270 274 276 278 280 281 280 280 281 281 281 281 280 283 286 285 286 287 286 288 290 290 290 290 291 293 295 296 296 296
238 239 240 242 240 241 246 253 255 256 255 257 261 264 266 271 275 277 277 278 278 278 279 279 280 280 280 282 284 284 284 284 285 286 287 287 288 288 289 291 294 296 296 295
242 241 242 245 246 246 248 252 256 258 260 259 259 260 264 268 269 272 275 277 278 278 278 278 277 278 278 280 281 281 283 285 286 285 286 287 290 292 292 293 295 296 297 297
246 247 246 246 247 250 249 251 253 257 257 258 261 262 263 266 269 273 274 275 276 277 278 278 278 276 277 278 280 280 281 283 284 286 286 287 289 290 291 293 293 294 295 296
249 250 250 250 249 250 252 252 255 258 258 259 261 264 265 269 272 275 276 276 276 277 276 275 276 275 277 279 280 280 279 280 283 284 286 286 286 287 288 290 291 292 293 293
248 250 250 250 252 253 253 255 257 259 259 259 261 264 267 269 272 274 277 277 276 276 275 275 277 277 278 279 279 279 279 280 281 283 283 285 284 285 286 288 289 290 291 291
247 249 249 249 251 252 254 257 260 261 261 264 265 266 268 269 270 272 274 275 276 275 275 276 278 278 277 278 279 280 280 281 282 282 283 283 283 284 286 287 288 290 291 289
249 250 251 250 251 253 255 257 258 258 261 265 267 269 270 269 270 270 272 275 277 277 277 277 278 277 278 278 279 280 280 281 282 284 284 284 285 286 286 288 289 290 290 290
252 253 254 254 253 252 256 257 259 261 264 264 265 266 268 270 270 271 272 276 278 278 277 277 278 279 279 279 279 279 280 281 282 284 284 286 286 286 287 288 288 288 288 289
248 251 255 254 254 256 257 257 259 262 263 264 266 267 269 270 270 272 274 275 277 277 278 279 279 280 279 279 279 279 280 281 282 283 284 285 285 286 287 287 287 287 288 289
247 248 250 252 253 254 256 257 257 259 262 265 267 269 270 271 271 273 275 275 277 279 280 280 280 280 280 280 281 282 283 282 282 283 285 285 286 287 287 286 287 287 289 290
242 248 251 252 253 253 255 257 257 258 261 265 268 269 271 272 273 274 276 278 279 279 280 280 280 280 281 281 281 281 282 282 283 284 285 286 286 286 286 286 286 287 289 291
243 246 251 252 252 254 256 258 258 259 261 264 267 269 270 271 272 274 276 277 278 279 279 279 280 281 282 283 283 282 282 283 284 284 284 285 286 286 286 287 288 288 289 289
Height
5922 5924 5925 5926 5928 5928 5929 5930 5929 5930 5929 5928 5927 5926 5924 5923 5922 5921 5920 5918 5917 5916 5915 5915 5914 5914 5913 5913 5913 5912 5912 5911 5911 5910 5910 5910 5910 5909 5909 5909 5909 5908 5908 5908
5923 5924 5925 5926 5927 5927 5928 5930 5930 5929 5929 5928 5927 5925 5923 5923 5922 5921 5920 5919 5918 5916 5916 5915 5914 5914 5914 5914 5913 5912 5912 5912 5911 5911 5910 5910 5910 5909 5909 5909 5909 5908 5908 5908
5922 5924 5925 5925 5926 5927 5928 5930 5930 5928 5927 5928 5927 5926 5923 5922 5921 5920 5919 5919 5918 5917 5916 5915 5915 5914 5914 5914 5913 5913 5912 5912 5912 5911 5911 5910 5910 5909 5909 5908 5908 5908 5908 5907
5921 5922 5923 5924 5925 5926 5927 5928 5928 5927 5926 5926 5927 5925 5923 5921 5919 5919 5918 5917 5917 5916 5916 5915 5915 5914 5914 5913 5913 5913 5912 5912 5911 5911 5910 5910 5909 5909 5908 5908 5907 5907 5907 5906
5919 5920 5921 5923 5924 5923 5924 5924 5925 5925 5925 5926 5925 5925 5923 5920 5918 5917 5916 5916 5915 5915 5915 5915 5914 5913 5913 5913 5912 5912 5911 5911 5910 5910 5909 5909 5908 5907 5907 5906 5906 5906 5906 5905
5917 5918 5919 5920 5921 5922 5922 5923 5923 5923 5923 5925 5924 5924 5923 5919 5917 5916 5915 5915 5915 5915 5914 5914 5913 5912 5912 5912 5911 5911 5910 5910 5909 5908 5908 5907 5907 5906 5906 5905 5905 5904 5904 5903
5915 5916 5917 5918 5919 5920 5921 5922 5922 5922 5923 5923 5923 5922 5920 5917 5917 5915 5916 5915 5915 5915 5913 5912 5912 5911 5910 5910 5910 5909 5909 5908 5907 5907 5906 5905 5905 5904 5903 5903 5902 5902 5901 5901
5913 5915 5915 5916 5917 5918 5918 5920 5922 5922 5921 5921 5919 5919 5918 5914 5914 5914 5914 5914 5913 5912 5911 5910 5910 5909 5909 5908 5907 5907 5906 5906 5905 5904 5904 5903 5902 5901 5901 5900 5900 5899 5898 5898
5911 5913 5913 5914 5914 5916 5916 5917 5919 5919 5919 5919 5918 5916 5915 5912 5912 5911 5911 5911 5910 5909 5907 5907 5907 5906 5905 5905 5905 5905 5904 5903 5903 5902 5901 5900 5899 5899 5898 5897 5897 5896 5895 5894
5907 5908 5910 5911 5912 5912 5914 5914 5915 5915 5916 5916 5915 5914 5912 5910 5909 5909 5908 5906 5906 5904 5904 5904 5904 5903 5903 5902 5901 5902 5901 5900 5900 5899 5898 5897 5896 5896 5895 5894 5893 5892 5891 5890
5902 5904 5906 5907 5908 5910 5911 5911 5912 5912 5912 5913 5913 5913 5909 5906 5905 5905 5904 5903 5903 5901 5900 5901 5901 5901 5900 5899 5898 5899 5898 5897 5896 5896 5895 5894 5893 5892 5891 5890 5889 5888 5887 5886
5897 5899 5901 5903 5904 5905 5906 5907 5908 5909 5909 5909 5909 5910 5905 5903 5901 5900 5899 5900 5899 5898 5897 5896 5897 5897 5897 5896 5895 5894 5893 5893 5892 5892 5891 5890 5889 5888 5887 5886 5885 5884 5882 5881
5892 5893 5895 5898 5901 5901 5900 5901 5903 5904 5905 5905 5905 5905 5901 5898 5897 5896 5896 5895 5894 5894 5894 5893 5893 5893 5892 5891 5891 5889 5889 5888 5888 5887 5886 5886 5885 5883 5882 5881 5880 5879 5877 5876
5885 5887 5889 5892 5894 5895 5895 5896 5897 5898 5899 5900 5900 5898 5896 5893 5893 5892 5892 5891 5891 5891 5891 5889 5888 5888 5887 5886 5886 5885 5885 5884 5883 5882 5881 5881 5880 5878 5877 5876 5875 5873 5871 5870
5879 5880 5882 5884 5886 5889 5890 5891 5892 5892 5893 5894 5894 5892 5890 5888 5888 5887 5887 5886 5886 5885 5885 5885 5883 5883 5882 5882 5881 5880 5880 5879 5878 5877 5876 5875 5873 5872 5871 5870 5868 5867 5865 5863
5871 5873 5875 5877 5880 5881 5882 5884 5886 5887 5887 5886 5886 5886 5884 5882 5881 5880 5880 5880 5880 5879 5879 5879 5878 5877 5877 5876 5875 5874 5874 5873 5871 5870 5869 5868 5867 5866 5864 5863 5862 5860 5858 5856
5864 5866 5868 5870 5873 5874 5875 5878 5879 5879 5879 5880 5880 5879 5877 5876 5874 5874 5874 5874 5873 5873 5872 5872 5871 5871 5871 5870 5869 5868 5868 5867 5865 5864 5863 5861 5860 5858 5857 5856 5854 5853 5851 5849
5857 5859 5861 5863 5866 5866 5871 5871 5872 5871 5872 5872 5872 5871 5870 5869 5868 5867 5867 5867 5866 5865 5865 5864 5864 5864 5863 5863 5862 5862 5860 5859 5858 5857 5856 5854 5853 5851 5849 5848 5846 5844 5842 5840
5850 5851 5853 5856 5857 5859 5863 5863 5864 5864 5864 5865 5864 5863 5862 5862 5861 5859 5859 5859 5858 5858 5857 5857 5856 5856 5856 5855 5854 5853 5852 5851 5850 5849 5848 5846 5844 5843 5841 5839 5837 5835 5833 5831
5842 5843 5846 5848 5850 5852 5855 5855 5856 5857 5855 5856 5856 5855 5855 5854 5854 5853 5851 5850 5850 5849 5849 5849 5848 5848 5848 5847 5846 5845 5844 5843 5841 5840 5839 5837 5835 5833 5831 5829 5828 5826 5824 5822
5833 5835 5837 5839 5841 5844 5845 5845 5847 5849 5848 5847 5847 5847 5846 5846 5846 5845 5843 5842 5842 5841 5841 5840 5840 5839 5839 5838 5837 5836 5835 5834 5833 5831 5829 5828 5825 5823 5821 5819 5817 5815 5813 5811
5826 5828 5829 5831 5833 5837 5836 5837 5838 5838 5839 5839 5838 5837 5837 5837 5836 5835 5835 5834 5833 5832 5832 5831 5831 5830 5830 5829 5827 5826 5825 5824 5823 5822 5820 5818 5816 5814 5811 5810 5807 5803 5802 5800
5818 5821 5822 5823 5825 5826 5827 5828 5828 5829 5829 5829 5829 5828 5827 5827 5827 5827 5826 5826 5825 5823 5823 5822 5822 5821 5820 5819 5818 5816 5815 5814 5813 5811 5810 5808 5806 5804 5802 5799 5797 5793 5791 5789
5808 5810 5812 5813 5815 5816 5817 5818 5820 5820 5820 5820 5820 5819 5819 5819 5818 5818 5817 5817 5816 5815 5814 5813 5812 5811 5810 5809 5808 5807 5805 5804 5803 5801 5799 5797 5795 5793 5791 5788 5786 5783 5781 5779
5799 5801 5803 5804 5805 5806 5807 5809 5810 5811 5811 5811 5811 5811 5811 5810 5810 5810 5809 5808 5807 5806 5805 5804 5803 5802 5801 5799 5798 5796 5795 5793 5792 5790 5788 5786 5784 5782 5780 5777 5775 5773 5771 5768
5790 5792 5794 5794 5796 5797 5798 5800 5801 5801 5802 5802 5803 5803 5802 5802 5801 5801 5800 5799 5798 5796 5795 5794 5793 5792 5791 5789 5788 5786 5785 5783 5781 5780 5778 5776 5773 5771 5769 5767 5764 5762 5760 5757